Daviess Cnty AP, Washington,, IN

10:48 AM EST on December 15, 2019 (GMT -0500)
Daviess County

Weather History for KDCY - May, 2019

Change the Weather History Date:

Wednesday, May 1, 2019

  Actual Average (KLWV) Record (KLWV)
Temperature  
Mean Temperature 70 °F -  
Max Temperature 78 °F 70 °F 87 °F (2007)
Min Temperature 60 °F 49 °F 34 °F (2005)
Cooling Degree Days 4    
Growing Degree Days 20 (Base 50)    
Moisture  
Dew Point 60 °F    
Average Humidity 74    
Maximum Humidity 100    
Minimum Humidity 52    
Precipitation  
Precipitation 0.09 in - - ()
Sea Level Pressure  
Sea Level Pressure 30.01 in    
Wind  
Wind Speed 11 mph (SSW)    
Max Wind Speed 21 mph    
Max Gust Speed 29 mph    
Visibility 10 miles    
Events Rain    
Averages and records for this station are not official NWS values.
T = Trace of Precipitation, MM = Missing Value Source: NWS Daily Summary

Daily Weather History Graph

Daily Weather History Graph

Search for Another Location

Airport or City:

Astronomy

May. 01, 2019 Rise Set
Actual Time 6:51 AM EDT 8:40 PM EDT
Civil Twilight 6:22 AM EDT 9:09 PM EDT
Nautical Twilight 5:47 AM EDT 9:44 PM EDT
Astronomical Twilight 5:10 AM EDT 10:21 PM EDT
Moon 5:32 AM EDT (5/1) 5:31 PM EDT (5/1)
Length of Visible Light 14h 46m
Length of Day
13h 49m
Waning Crescent, 11% of the Moon is Illuminated
May 1
Waning Crescent
May 4
New
May 11
First Quarter
May 18
Full
May 26
Last Quarter

Hourly Weather History & Observations

Time (EDT) Temp. Dew Point Humidity Pressure Visibility Wind Dir Wind Speed Gust Speed Precip Events Conditions
12:15 AM 71.1 °F 53.6 °F 54% 29.98 in 10.0 mi South 11.5 mph - N/A   Clear
12:35 AM 69.8 °F 54.1 °F 57% 29.98 in 10.0 mi South 9.2 mph - N/A   Clear
12:55 AM 69.1 °F 53.8 °F 58% 29.97 in 10.0 mi South 9.2 mph - N/A   Clear
1:15 AM 68.9 °F 53.6 °F 58% 29.97 in 10.0 mi South 10.4 mph - N/A   Clear
1:35 AM 68.4 °F 53.6 °F 59% 29.97 in 10.0 mi South 9.2 mph - N/A   Clear
1:55 AM 68.2 °F 53.6 °F 60% 29.98 in 10.0 mi South 9.2 mph - N/A   Clear
2:15 AM 68.9 °F 54.0 °F 59% 29.97 in 10.0 mi South 10.4 mph - N/A   Clear
2:35 AM 70.2 °F 54.5 °F 57% 29.96 in 10.0 mi South 13.8 mph - N/A   Clear
2:50 AM 70.3 °F 55.0 °F 58% 29.96 in 10.0 mi South 16.1 mph 21.9 mph N/A   Clear
3:15 AM 70.5 °F 55.6 °F 59% 29.95 in 10.0 mi South 12.7 mph 20.7 mph N/A   Clear
3:35 AM 70.7 °F 56.5 °F 61% 29.95 in 10.0 mi South 13.8 mph - N/A   Clear
3:55 AM 71.2 °F 57.4 °F 61% 29.93 in 10.0 mi South 19.6 mph 28.8 mph N/A   Clear
4:15 AM 70.7 °F 57.9 °F 64% 29.92 in 10.0 mi South 19.6 mph 25.3 mph N/A   Clear
4:35 AM 70.2 °F 58.1 °F 65% 29.91 in 10.0 mi South 18.4 mph 25.3 mph N/A   Clear
4:55 AM 70.0 °F 58.1 °F 66% 29.91 in 10.0 mi South 17.3 mph 25.3 mph N/A   Scattered Clouds
5:15 AM 70.3 °F 58.5 °F 66% 29.92 in 10.0 mi SSW 18.4 mph 24.2 mph N/A   Scattered Clouds
5:35 AM 70.2 °F 58.6 °F 67% 29.94 in 10.0 mi SSW 16.1 mph - N/A   Mostly Cloudy
5:55 AM 70.0 °F 59.0 °F 68% 29.94 in 10.0 mi SSW 16.1 mph - N/A   Scattered Clouds
6:15 AM 70.0 °F 59.0 °F 68% 29.95 in 10.0 mi SSW 11.5 mph - N/A   Clear
6:35 AM 69.1 °F 59.4 °F 71% 29.96 in 10.0 mi SSW 11.5 mph 19.6 mph N/A   Scattered Clouds
6:55 AM 68.9 °F 59.5 °F 72% 29.96 in 10.0 mi SSW 9.2 mph - N/A   Scattered Clouds
7:15 AM 68.5 °F 59.9 °F 74% 29.97 in 10.0 mi SSW 12.7 mph - N/A   Mostly Cloudy
7:35 AM 69.1 °F 60.1 °F 73% 29.98 in 10.0 mi SSW 11.5 mph - N/A   Scattered Clouds
7:55 AM 69.3 °F 60.3 °F 73% 29.98 in 10.0 mi South 13.8 mph 19.6 mph N/A   Scattered Clouds
8:15 AM 69.4 °F 60.8 °F 74% 29.99 in 10.0 mi South 13.8 mph - N/A   Scattered Clouds
8:35 AM 70.2 °F 60.8 °F 72% 29.99 in 10.0 mi South 15.0 mph - N/A   Mostly Cloudy
8:55 AM 70.7 °F 61.2 °F 72% 29.99 in 10.0 mi SSW 12.7 mph 21.9 mph N/A   Overcast
9:15 AM 71.1 °F 61.3 °F 71% 29.99 in 10.0 mi SSW 15.0 mph 23.0 mph N/A   Overcast
9:35 AM 70.9 °F 61.7 °F 73% 29.98 in 10.0 mi South 13.8 mph 19.6 mph N/A   Overcast
9:55 AM 70.7 °F 61.7 °F 73% 29.98 in 10.0 mi SSW 13.8 mph 17.3 mph N/A   Overcast
10:15 AM 67.1 °F 60.1 °F 78% 29.99 in 10.0 mi West 5.8 mph - N/A Rain Light Rain
10:35 AM 68.0 °F 60.6 °F 77% 29.98 in 10.0 mi WSW 6.9 mph - N/A   Scattered Clouds
10:55 AM 69.4 °F 61.5 °F 76% 29.98 in 10.0 mi SSW 9.2 mph - N/A   Clear
11:15 AM 71.1 °F 62.6 °F 75% 29.97 in 10.0 mi South 13.8 mph - N/A   Scattered Clouds
11:35 AM 73.6 °F 63.5 °F 71% 29.98 in 10.0 mi SSW 16.1 mph 21.9 mph N/A   Scattered Clouds
11:55 AM 75.0 °F 63.3 °F 67% 29.99 in 10.0 mi SSW 16.1 mph 26.5 mph N/A   Clear
12:15 PM 75.7 °F 63.3 °F 65% 30.00 in 10.0 mi SW 11.5 mph 25.3 mph N/A   Clear
12:35 PM 77.2 °F 63.9 °F 63% 30.00 in 10.0 mi SW 13.8 mph 20.7 mph N/A   Clear
12:55 PM 78.8 °F 62.8 °F 58% 30.02 in 10.0 mi West 17.3 mph 23.0 mph N/A   Scattered Clouds
1:15 PM 77.7 °F 63.3 °F 61% 30.02 in 10.0 mi West 16.1 mph 24.2 mph N/A   Mostly Cloudy
1:35 PM 77.0 °F 62.8 °F 61% 30.03 in 10.0 mi WSW 11.5 mph 18.4 mph N/A   Scattered Clouds
1:55 PM 77.7 °F 63.1 °F 61% 30.03 in 10.0 mi West 15.0 mph 19.6 mph N/A   Scattered Clouds
2:15 PM 78.1 °F 62.8 °F 59% 30.03 in 10.0 mi WSW 11.5 mph - N/A   Scattered Clouds
2:35 PM 78.1 °F 60.8 °F 55% 30.04 in 10.0 mi WSW 17.3 mph 24.2 mph N/A   Scattered Clouds
2:55 PM 78.4 °F 59.7 °F 52% 30.03 in 10.0 mi West 20.7 mph 26.5 mph N/A   Scattered Clouds
3:15 PM 75.7 °F 59.5 °F 57% 30.03 in 10.0 mi West 15.0 mph 20.7 mph N/A   Mostly Cloudy
3:35 PM 75.2 °F 59.9 °F 59% 30.04 in 10.0 mi West 13.8 mph 19.6 mph N/A   Overcast
3:55 PM 74.3 °F 60.1 °F 61% 30.04 in 10.0 mi West 13.8 mph 20.7 mph N/A   Overcast
4:15 PM 73.4 °F 60.1 °F 63% 30.03 in 10.0 mi West 10.4 mph 16.1 mph N/A   Overcast
4:35 PM 72.7 °F 60.1 °F 64% 30.03 in 10.0 mi West 12.7 mph - N/A   Mostly Cloudy
4:55 PM 72.3 °F 59.9 °F 65% 30.03 in 10.0 mi West 10.4 mph - N/A   Overcast
5:15 PM 70.5 °F 60.4 °F 70% 30.03 in 10.0 mi WNW 9.2 mph - N/A Rain Light Rain
5:35 PM 67.1 °F 61.7 °F 83% 30.04 in 10.0 mi West 8.1 mph - N/A Rain Light Rain
5:55 PM 67.1 °F 63.3 °F 88% 30.05 in 10.0 mi West 3.5 mph - N/A   Light Drizzle
6:15 PM 67.1 °F 62.8 °F 86% 30.05 in 10.0 mi NW 8.1 mph - N/A Rain Light Rain
6:35 PM 65.7 °F 63.3 °F 92% 30.06 in 10.0 mi NW 6.9 mph - 0.01 in Rain Rain
6:55 PM 64.4 °F 64.2 °F 99% 30.06 in 5.0 mi NW 6.9 mph - 0.07 in Rain Heavy Rain
7:15 PM 63.7 °F 63.5 °F 99% 30.05 in 10.0 mi NW 3.5 mph - 0.02 in Rain Light Rain
7:35 PM 63.7 °F 63.5 °F 99% 30.05 in 10.0 mi Calm Calm - 0.02 in   Light Drizzle
7:55 PM 64.4 °F 63.9 °F 98% 30.05 in 10.0 mi Calm Calm - 0.02 in   Mostly Cloudy
8:15 PM 64.4 °F 64.0 °F 99% 30.05 in 10.0 mi Calm Calm - N/A   Scattered Clouds
8:35 PM 63.9 °F 63.7 °F 99% 30.05 in 10.0 mi Calm Calm - N/A   Clear
8:55 PM 63.1 °F 63.0 °F 99% 30.05 in 10.0 mi SE 5.8 mph - N/A   Clear
9:15 PM 63.0 °F 62.6 °F 99% 30.06 in 10.0 mi SE 4.6 mph - N/A   Clear
9:35 PM 62.6 °F 62.6 °F 100% 30.07 in 10.0 mi Calm Calm - N/A   Scattered Clouds
9:55 PM 62.6 °F 62.2 °F 99% 30.08 in 10.0 mi SE 3.5 mph - N/A   Overcast
10:15 PM 62.1 °F 61.9 °F 99% 30.08 in 10.0 mi SSE 3.5 mph - N/A   Overcast
10:35 PM 61.7 °F 61.5 °F 99% 30.08 in 10.0 mi South 3.5 mph - N/A   Scattered Clouds
10:55 PM 61.2 °F 61.0 °F 99% 30.09 in 10.0 mi South 4.6 mph - N/A   Mostly Cloudy
11:15 PM 61.2 °F 61.0 °F 99% 30.08 in 10.0 mi South 4.6 mph - N/A   Mostly Cloudy
11:35 PM 61.2 °F 61.0 °F 99% 30.08 in 10.0 mi SSE 3.5 mph - N/A   Mostly Cloudy
11:55 PM 60.4 °F 60.1 °F 99% 30.08 in 10.0 mi South 3.5 mph - N/A   Clear